Temperature
3 2 2 2 1 0 -1 -2 -2 -2 -2 -2 -2 -3 -3 -4 -5 -5 -6 -6 -7 -7 -7 -8 -8 -8 -8 -8 -8 -8 -8 -8 -7 -7 -6 -3 -1 1 1 2 3 4 6
3 2 2 2 0 -1 -2 -2 -2 -2 -3 -3 -4 -5 -5 -5 -6 -6 -7 -7 -8 -8 -9 -9 -9 -9 -9 -9 -9 -9 -9 -9 -8 -8 -7 -6 -4 -1 1 2 2 2 4
3 2 2 0 -1 -2 -2 -2 -3 -3 -4 -4 -5 -5 -5 -6 -6 -7 -7 -8 -8 -9 -9 -10 -10 -10 -10 -10 -10 -10 -10 -10 -9 -8 -8 -7 -5 -6 -3 -1 0 2 2
3 2 1 -0 -2 -2 -3 -3 -3 -4 -5 -5 -6 -6 -7 -7 -8 -9 -9 -9 -9 -9 -10 -10 -11 -11 -11 -11 -11 -11 -11 -10 -10 -9 -8 -8 -7 -6 -5 -4 -2 -1 1
2 1 0 -1 -2 -2 -3 -4 -4 -5 -5 -6 -7 -7 -8 -9 -9 -9 -9 -9 -9 -10 -10 -11 -11 -11 -11 -11 -11 -11 -11 -11 -10 -10 -9 -8 -7 -7 -6 -6 -5 -2 -0
2 1 0 -1 -2 -3 -4 -4 -5 -5 -6 -7 -7 -8 -9 -9 -10 -10 -10 -11 -11 -11 -11 -12 -12 -12 -12 -12 -11 -11 -11 -10 -10 -10 -9 -9 -8 -7 -7 -6 -6 -6 -2
1 1 -0 -2 -3 -4 -4 -5 -5 -6 -7 -7 -8 -9 -9 -10 -10 -11 -11 -12 -12 -12 -12 -13 -13 -13 -12 -12 -12 -12 -11 -10 -10 -10 -9 -9 -8 -8 -7 -7 -7 -6 -5
1 0 -1 -3 -4 -4 -5 -5 -6 -6 -7 -8 -8 -9 -10 -10 -11 -11 -12 -12 -12 -13 -13 -13 -13 -13 -13 -12 -12 -12 -11 -11 -10 -10 -9 -9 -8 -8 -7 -7 -7 -6 -6
0 -1 -2 -3 -4 -5 -5 -5 -6 -7 -7 -8 -9 -10 -11 -11 -11 -12 -12 -13 -13 -13 -13 -13 -13 -13 -13 -13 -13 -12 -11 -10 -10 -9 -9 -8 -8 -8 -7 -7 -7 -6 -6
-0 -2 -3 -4 -5 -5 -5 -6 -6 -7 -8 -9 -10 -11 -11 -11 -12 -12 -13 -13 -13 -13 -14 -14 -14 -13 -13 -13 -13 -12 -11 -10 -10 -9 -9 -8 -8 -8 -7 -7 -7 -6 -6
-1 -3 -4 -4 -4 -5 -5 -6 -7 -8 -9 -10 -10 -11 -11 -12 -12 -13 -13 -13 -13 -14 -14 -14 -14 -13 -13 -13 -12 -12 -11 -10 -9 -9 -9 -8 -8 -8 -7 -7 -6 -6 -5
-2 -3 -4 -4 -4 -5 -5 -6 -7 -8 -9 -10 -11 -11 -11 -12 -12 -13 -13 -13 -13 -14 -14 -14 -13 -13 -13 -13 -12 -11 -10 -10 -9 -9 -9 -8 -8 -8 -7 -7 -6 -6 -5
-3 -3 -3 -4 -4 -5 -6 -7 -8 -9 -10 -10 -11 -11 -12 -12 -13 -13 -13 -13 -13 -13 -13 -13 -13 -13 -13 -12 -11 -10 -10 -10 -9 -9 -9 -8 -8 -8 -8 -7 -6 -5 -5
-3 -3 -3 -4 -4 -5 -6 -7 -8 -9 -10 -10 -11 -11 -12 -12 -13 -13 -13 -13 -13 -13 -13 -13 -13 -12 -12 -11 -10 -10 -10 -9 -9 -9 -9 -9 -9 -9 -8 -8 -7 -6 -4
-3 -3 -3 -4 -5 -6 -7 -8 -8 -9 -10 -10 -11 -11 -12 -12 -13 -13 -13 -13 -13 -13 -13 -13 -12 -12 -11 -10 -10 -10 -10 -10 -9 -9 -9 -9 -9 -9 -9 -8 -8 -7 -5
-2 -3 -4 -4 -5 -6 -7 -8 -8 -9 -9 -10 -11 -11 -12 -12 -13 -13 -13 -13 -13 -13 -13 -12 -12 -11 -10 -10 -10 -10 -10 -10 -10 -10 -9 -9 -9 -10 -9 -9 -8 -8 -7
-2 -3 -4 -5 -5 -6 -7 -8 -8 -9 -9 -10 -11 -11 -12 -13 -13 -13 -13 -13 -13 -13 -13 -13 -12 -11 -11 -10 -11 -11 -10 -10 -10 -10 -10 -10 -10 -10 -10 -9 -9 -8 -8
-2 -3 -4 -5 -5 -6 -7 -7 -8 -8 -9 -10 -11 -11 -12 -12 -13 -13 -13 -13 -13 -13 -13 -13 -12 -12 -11 -11 -11 -11 -11 -11 -11 -11 -11 -11 -10 -10 -10 -10 -9 -9 -8
-3 -4 -4 -5 -5 -6 -7 -7 -8 -8 -9 -10 -10 -11 -12 -12 -13 -13 -13 -13 -13 -13 -13 -13 -12 -12 -12 -11 -11 -12 -12 -12 -11 -11 -12 -11 -11 -11 -11 -10 -10 -9 -8
-3 -4 -4 -5 -5 -6 -7 -7 -7 -8 -9 -10 -10 -11 -11 -12 -13 -13 -13 -13 -13 -13 -13 -13 -13 -12 -13 -12 -12 -12 -13 -12 -12 -12 -12 -12 -12 -12 -11 -11 -11 -11 -9
-3 -4 -5 -5 -5 -6 -6 -7 -7 -8 -8 -9 -9 -10 -11 -12 -12 -12 -13 -13 -13 -13 -13 -13 -13 -13 -13 -13 -12 -12 -13 -13 -13 -13 -13 -13 -13 -12 -12 -12 -12 -12 -10
-4 -4 -5 -5 -5 -6 -6 -7 -7 -8 -8 -8 -9 -10 -11 -12 -12 -12 -13 -13 -13 -13 -13 -13 -13 -13 -13 -13 -13 -13 -13 -14 -13 -14 -14 -14 -13 -13 -12 -12 -12 -11 -10
-4 -4 -4 -5 -5 -6 -6 -7 -7 -7 -8 -8 -9 -10 -10 -11 -12 -12 -12 -13 -13 -13 -13 -13 -13 -13 -13 -13 -13 -13 -13 -14 -14 -14 -14 -14 -14 -13 -12 -13 -12 -11 -11
-4 -4 -4 -5 -5 -6 -6 -7 -7 -7 -7 -8 -8 -9 -10 -10 -11 -12 -12 -13 -13 -13 -13 -13 -13 -13 -13 -13 -13 -13 -13 -14 -14 -13 -14 -14 -14 -13 -13 -13 -12 -12 -12
-3 -4 -4 -5 -5 -5 -6 -6 -7 -7 -7 -8 -8 -9 -9 -10 -10 -11 -12 -12 -13 -13 -13 -13 -13 -13 -13 -13 -13 -13 -13 -14 -14 -14 -13 -14 -14 -14 -14 -14 -13 -13 -13
-3 -4 -4 -4 -5 -5 -6 -6 -7 -7 -7 -7 -8 -9 -9 -10 -10 -10 -10 -11 -12 -12 -13 -13 -13 -13 -13 -13 -13 -13 -13 -14 -14 -14 -14 -14 -15 -15 -15 -15 -14 -14 -14
Wind_Speed
5 4 2 3 6 7 7 7 8 9 11 8 10 10 10 9 13 18 20 21 23 23 20 17 16 16 9 11 12 13 13 12 12 13 15 13 11 11 7 8 10 10 12
5 2 3 5 5 5 6 7 8 7 10 9 8 7 7 7 13 16 17 20 22 21 19 18 15 14 9 10 11 12 10 11 11 11 12 8 7 6 10 7 8 9 12
5 2 3 3 2 4 6 8 7 7 10 12 11 11 5 5 6 6 9 19 21 20 19 20 17 15 10 10 11 10 11 12 12 8 7 7 6 13 7 6 6 10 12
4 2 1 0 2 4 5 6 7 6 9 12 9 10 10 9 9 7 8 17 20 19 19 21 18 15 12 10 11 11 11 11 12 10 7 8 10 8 8 7 6 9 12
4 2 1 1 2 4 5 6 7 6 8 10 8 9 9 8 9 9 10 9 15 17 19 20 17 15 12 10 10 11 11 10 11 11 11 10 10 10 9 14 14 13 9
4 2 0 2 4 5 6 6 7 7 7 8 7 9 10 11 13 13 11 10 8 12 18 20 17 17 14 11 11 10 12 11 12 12 11 10 9 9 8 12 16 17 14
4 0 3 5 6 7 7 7 7 7 8 8 8 9 9 10 11 12 12 13 11 10 11 18 15 14 15 16 15 11 12 12 13 12 11 11 11 10 11 12 14 17 15
2 2 3 5 6 7 7 7 8 8 8 9 9 8 8 8 9 11 12 12 12 11 15 18 18 17 18 18 14 11 12 12 13 14 14 12 11 10 10 11 12 15 14
2 2 4 5 6 7 7 7 8 8 9 9 9 8 8 9 10 10 9 9 12 16 19 20 17 17 17 15 12 11 13 13 13 13 14 12 10 10 10 10 11 12 16
1 3 4 5 5 5 6 7 7 8 9 9 9 13 9 10 11 10 12 12 14 17 17 15 15 14 14 14 12 12 13 14 14 12 14 13 10 10 10 10 11 12 14
2 1 3 4 5 6 7 7 8 9 9 10 10 11 11 11 12 10 11 12 13 16 14 14 15 16 15 13 13 14 15 15 14 14 14 13 12 10 10 10 11 12 13
2 1 3 4 6 7 8 8 9 9 10 10 10 11 12 11 12 12 12 15 13 16 16 15 16 17 16 15 15 16 15 14 15 14 12 11 10 11 10 10 11 11 12
3 1 3 5 6 7 8 9 9 10 10 10 11 11 12 12 12 13 13 14 14 14 16 15 16 17 17 17 16 14 14 13 12 10 9 10 11 11 10 11 10 9 10
2 1 3 5 7 7 8 8 9 9 11 11 11 11 12 12 13 12 12 13 13 14 15 17 18 19 19 17 14 11 8 7 6 8 9 10 11 13 13 10 11 11 8
1 3 4 5 7 7 8 8 9 9 10 11 11 12 12 12 12 12 12 12 13 15 15 17 19 20 18 11 9 8 9 9 9 10 11 11 16 22 18 13 13 13 10
2 3 5 6 7 7 8 9 9 10 9 10 11 12 13 13 13 12 12 13 14 14 15 16 18 21 18 23 25 19 13 12 12 12 12 12 13 20 24 25 23 21 16
2 2 4 5 6 7 7 8 9 9 9 10 10 12 12 13 13 14 13 13 13 12 13 15 17 19 22 29 27 26 15 13 13 13 13 14 16 16 12 19 22 21 24
3 1 3 4 5 6 7 8 8 8 9 9 10 11 11 12 12 12 12 11 9 11 11 12 15 16 22 28 25 23 14 12 13 13 14 13 15 17 17 14 14 14 15
4 2 1 2 4 6 7 7 8 8 8 9 10 11 11 12 12 12 11 9 9 8 10 11 13 15 18 27 24 20 10 11 12 14 16 17 14 26 26 18 16 15 15
4 2 0 2 4 6 6 7 8 8 9 10 11 10 11 11 11 11 10 8 8 9 11 11 11 13 14 24 25 19 10 11 11 12 14 21 23 26 27 17 16 17 15
5 3 2 2 4 5 6 7 7 8 9 10 10 10 10 10 10 10 8 9 9 9 9 10 10 10 14 20 25 23 9 11 11 11 11 14 25 26 27 22 16 20 16
5 3 2 3 4 5 6 6 7 8 8 8 9 9 9 10 11 10 9 8 8 7 8 8 8 8 10 15 19 24 21 17 12 11 9 13 24 24 25 21 23 25 20
5 3 2 2 4 5 5 5 7 8 8 8 8 8 9 9 9 8 8 8 7 5 6 7 7 8 8 10 17 19 20 21 11 10 18 20 23 21 18 24 26 20 14
5 4 3 3 3 5 5 5 7 7 7 8 8 8 7 8 8 8 8 7 7 6 6 6 7 7 8 7 5 5 7 12 11 9 14 19 21 18 19 19 16 14 13
5 4 3 2 2 4 5 6 7 7 7 7 7 8 8 8 7 8 7 8 6 9 8 5 6 7 6 9 14 9 6 5 8 8 8 9 10 12 12 12 12 12 13
5 5 4 1 1 3 4 6 6 6 6 6 7 6 6 7 8 8 8 13 14 17 16 15 13 10 14 15 14 13 13 15 16 9 6 8 9 10 11 11 11 11 12
Wind_Direction
132 140 116 76 46 29 12 2 352 347 354 355 355 350 347 342 344 346 347 348 348 346 343 347 341 341 336 330 330 331 328 329 327 322 319 303 283 283 311 320 319 327 339
140 148 67 49 34 9 349 355 354 349 354 351 342 336 326 322 332 333 338 344 344 342 345 342 336 335 332 326 329 327 329 327 329 322 321 317 311 332 315 307 314 337 339
142 85 47 44 1 345 346 3 351 346 349 348 345 342 324 315 329 328 335 339 337 336 338 335 331 331 330 326 326 324 328 324 321 315 313 315 317 324 302 306 324 337 328
134 92 44 204 328 333 344 352 344 339 345 349 347 346 345 336 331 327 323 328 330 330 334 332 329 329 327 323 323 329 318 317 317 314 293 295 302 302 310 311 316 318 321
151 145 193 186 353 346 345 340 336 333 339 343 338 335 332 324 324 325 323 323 326 328 330 328 328 326 324 319 316 317 315 313 309 308 306 302 297 281 289 302 311 315 308
173 187 110 17 351 344 338 333 333 330 332 335 331 329 326 325 328 330 328 329 324 325 325 326 327 323 321 318 315 313 311 308 304 303 302 301 297 296 296 295 304 306 307
192 211 12 353 340 336 331 329 334 333 335 335 331 326 324 322 324 327 328 328 327 326 319 323 322 320 319 317 315 312 309 306 303 302 300 296 290 290 291 292 297 298 302
174 45 11 350 335 330 330 334 339 339 338 336 330 322 323 326 325 324 325 325 324 321 318 320 316 315 316 317 312 308 306 305 303 299 297 293 287 283 283 285 292 296 297
119 41 7 353 336 332 338 341 343 341 336 332 326 326 323 320 320 319 319 321 321 323 322 318 314 312 312 311 308 305 305 303 299 298 297 292 287 286 283 279 276 280 288
125 36 359 340 331 335 341 344 345 336 328 325 324 338 321 316 317 318 321 320 319 319 317 317 315 312 311 308 305 305 304 302 298 298 297 294 289 287 284 279 273 266 268
157 354 329 328 334 345 349 345 340 335 330 324 318 319 319 317 317 318 318 317 316 317 317 318 316 314 311 308 306 304 302 300 300 301 298 297 296 295 291 286 277 269 261
156 274 330 339 346 351 348 344 337 335 329 323 323 323 321 319 320 320 318 318 316 318 319 318 316 314 313 309 305 303 301 299 299 301 304 309 313 310 305 299 286 274 265
175 308 349 348 347 348 345 340 335 331 327 328 329 326 325 325 324 321 319 320 320 320 321 322 319 318 314 311 305 299 296 296 301 312 324 330 336 334 327 320 318 300 277
183 16 357 347 345 343 339 334 330 329 336 336 331 330 330 328 324 322 321 323 325 325 326 327 327 324 318 312 308 304 305 322 342 350 349 351 1 354 346 344 344 334 314
126 25 2 347 343 340 335 331 328 331 335 334 336 336 333 329 328 328 328 330 334 338 334 335 335 334 333 344 6 23 29 22 13 5 357 358 13 11 7 8 5 359 358
91 25 360 348 342 335 330 328 329 332 333 333 334 335 336 336 334 334 339 341 341 340 341 342 342 345 355 27 43 45 30 22 14 7 0 360 8 17 11 12 15 14 14
103 24 348 332 325 324 325 328 328 328 332 332 333 336 336 337 336 341 344 343 340 341 343 344 348 350 359 27 38 38 30 20 14 8 5 7 5 21 13 8 13 13 14
134 355 327 321 318 323 328 326 327 331 332 334 334 336 337 335 335 339 342 339 336 341 341 343 350 353 0 20 34 32 21 16 11 5 4 9 2 14 21 8 9 12 10
151 176 260 292 321 333 333 333 334 334 338 342 340 338 337 336 338 343 340 337 336 339 342 348 351 354 354 11 30 34 12 13 7 6 6 11 10 13 20 13 8 10 7
142 147 29 343 349 340 339 344 340 342 346 344 340 338 341 338 338 341 337 336 337 345 350 351 351 351 351 8 25 39 25 15 9 7 5 9 15 14 19 18 10 12 4
143 132 86 27 350 339 350 351 345 344 338 337 339 343 343 338 344 340 335 337 343 342 343 348 348 348 358 6 18 30 38 24 11 9 5 6 14 15 18 20 16 14 10
146 137 95 32 355 353 360 352 342 327 328 336 341 341 340 344 351 335 334 336 338 335 337 343 348 347 346 1 15 23 28 32 19 5 4 10 17 16 16 19 17 15 13
161 148 112 52 7 357 1 347 324 322 331 337 338 334 336 339 339 331 332 337 340 336 343 346 347 344 344 345 10 20 23 25 26 10 16 17 18 16 13 15 17 15 11
164 152 119 67 9 347 348 327 315 322 333 335 330 331 335 337 334 340 344 340 339 340 340 340 334 330 333 329 334 353 14 20 23 14 10 16 17 18 14 14 14 13 13
165 152 135 102 345 336 338 326 319 325 335 330 327 330 339 332 332 337 338 343 330 352 351 328 326 327 320 336 358 8 4 5 18 13 8 10 12 13 11 11 12 12 12
163 156 154 159 316 331 330 323 315 321 332 335 329 321 328 335 336 330 332 346 353 353 354 351 349 342 345 349 353 357 3 6 13 18 6 9 10 10 8 7 7 9 12
Height
1618 1615 1612 1609 1605 1600 1594 1588 1582 1576 1570 1564 1558 1552 1547 1542 1537 1532 1526 1520 1514 1509 1504 1498 1493 1488 1483 1479 1474 1469 1464 1459 1455 1449 1440 1433 1431 1429 1427 1427 1427 1427 1427
1616 1614 1611 1608 1603 1597 1591 1585 1580 1574 1569 1563 1557 1551 1545 1539 1534 1529 1523 1517 1511 1505 1500 1495 1489 1484 1479 1474 1470 1466 1461 1456 1454 1450 1442 1433 1426 1423 1421 1421 1421 1421 1421
1615 1612 1609 1605 1600 1595 1589 1584 1579 1573 1567 1561 1555 1549 1542 1536 1530 1524 1518 1514 1508 1502 1497 1491 1485 1480 1475 1470 1466 1462 1458 1453 1450 1449 1447 1440 1432 1423 1414 1415 1415 1415 1415
1613 1610 1607 1603 1598 1593 1588 1583 1577 1571 1565 1558 1552 1545 1538 1532 1526 1520 1515 1510 1505 1499 1493 1487 1481 1476 1471 1466 1462 1458 1455 1450 1446 1444 1443 1441 1436 1431 1418 1409 1409 1410 1410
1611 1608 1605 1601 1596 1592 1586 1581 1575 1569 1563 1557 1550 1544 1537 1531 1524 1518 1511 1505 1500 1494 1489 1483 1477 1472 1467 1462 1457 1453 1450 1446 1443 1440 1437 1435 1433 1429 1425 1413 1404 1403 1404
1609 1606 1603 1599 1595 1590 1584 1579 1573 1567 1561 1554 1548 1542 1535 1528 1520 1513 1507 1500 1494 1489 1484 1478 1473 1467 1462 1457 1452 1448 1444 1441 1438 1435 1433 1431 1428 1425 1422 1416 1408 1401 1398
1607 1604 1601 1597 1593 1587 1582 1576 1570 1564 1558 1552 1546 1539 1532 1525 1518 1511 1503 1496 1489 1483 1478 1473 1468 1463 1457 1452 1447 1443 1439 1436 1433 1430 1427 1425 1423 1421 1419 1415 1408 1401 1395
1605 1602 1599 1595 1590 1585 1579 1573 1567 1562 1556 1549 1543 1537 1530 1523 1516 1509 1501 1494 1486 1480 1474 1469 1464 1458 1453 1448 1442 1438 1434 1431 1428 1425 1422 1419 1417 1416 1414 1412 1408 1401 1393
1603 1600 1597 1593 1588 1582 1577 1571 1565 1559 1553 1547 1540 1533 1527 1520 1513 1505 1498 1491 1484 1477 1471 1465 1459 1454 1448 1443 1438 1433 1429 1426 1423 1420 1417 1414 1412 1410 1408 1406 1404 1402 1395
1601 1598 1595 1591 1586 1580 1575 1569 1563 1557 1552 1545 1538 1532 1525 1517 1510 1503 1495 1488 1481 1474 1467 1461 1455 1449 1443 1438 1433 1428 1425 1421 1418 1416 1413 1410 1407 1405 1402 1400 1398 1397 1394
1599 1596 1593 1588 1584 1578 1573 1567 1561 1555 1549 1543 1536 1529 1522 1515 1508 1501 1493 1486 1479 1472 1465 1458 1451 1444 1438 1433 1428 1424 1420 1417 1414 1412 1409 1406 1404 1400 1397 1394 1392 1390 1388
1596 1593 1590 1586 1581 1576 1571 1565 1559 1553 1547 1540 1533 1527 1519 1512 1506 1499 1492 1485 1478 1471 1463 1456 1448 1440 1434 1428 1423 1419 1416 1414 1411 1409 1407 1404 1400 1397 1393 1389 1385 1383 1381
1593 1591 1587 1583 1578 1574 1569 1564 1558 1551 1545 1538 1531 1524 1518 1511 1504 1498 1491 1484 1477 1469 1462 1454 1445 1437 1429 1423 1418 1415 1413 1411 1410 1408 1405 1402 1398 1394 1389 1384 1380 1376 1374
1590 1588 1584 1581 1577 1573 1568 1563 1557 1550 1544 1537 1530 1523 1517 1510 1504 1497 1491 1484 1477 1469 1461 1453 1444 1434 1425 1419 1415 1413 1412 1412 1410 1408 1405 1402 1398 1393 1387 1382 1376 1371 1368
1587 1585 1582 1579 1576 1572 1567 1562 1556 1549 1542 1535 1529 1523 1517 1511 1504 1497 1491 1484 1477 1470 1462 1454 1444 1434 1424 1419 1417 1416 1416 1414 1412 1409 1406 1402 1399 1393 1387 1381 1375 1369 1366
1584 1583 1580 1578 1574 1570 1566 1561 1555 1548 1542 1535 1529 1523 1517 1511 1504 1497 1491 1485 1478 1471 1464 1456 1448 1439 1431 1427 1424 1422 1420 1417 1415 1411 1407 1403 1399 1393 1386 1380 1374 1370 1366
1582 1581 1579 1576 1573 1569 1565 1560 1554 1548 1541 1535 1529 1523 1517 1511 1505 1499 1492 1486 1479 1472 1466 1460 1453 1445 1439 1435 1431 1428 1424 1421 1418 1414 1410 1405 1401 1394 1387 1380 1375 1370 1367
1580 1579 1577 1575 1572 1569 1565 1559 1554 1547 1541 1535 1529 1523 1517 1511 1505 1499 1493 1487 1480 1474 1468 1463 1457 1451 1446 1442 1437 1432 1429 1425 1421 1417 1413 1409 1403 1398 1390 1383 1377 1372 1368
1578 1576 1575 1573 1570 1567 1563 1558 1553 1547 1541 1534 1529 1523 1518 1512 1506 1500 1494 1488 1482 1477 1471 1467 1461 1455 1450 1446 1441 1435 1431 1427 1423 1419 1415 1412 1406 1401 1393 1386 1380 1375 1371
1575 1574 1573 1571 1569 1566 1562 1557 1552 1546 1540 1535 1529 1524 1519 1513 1507 1502 1496 1491 1485 1480 1475 1470 1465 1460 1454 1450 1445 1439 1434 1430 1426 1422 1417 1414 1409 1404 1397 1389 1384 1378 1374
1573 1572 1571 1569 1567 1564 1561 1556 1551 1546 1541 1536 1531 1525 1520 1514 1509 1503 1498 1493 1487 1482 1477 1473 1468 1463 1458 1454 1450 1444 1438 1433 1429 1425 1420 1416 1412 1406 1400 1394 1389 1385 1379
1570 1570 1569 1567 1565 1563 1560 1556 1551 1547 1542 1537 1532 1526 1521 1515 1510 1504 1499 1494 1488 1484 1479 1474 1470 1466 1462 1457 1454 1449 1444 1438 1433 1429 1425 1420 1414 1409 1403 1398 1393 1388 1382
1568 1568 1567 1565 1564 1561 1559 1555 1551 1547 1543 1538 1533 1527 1522 1516 1511 1504 1499 1494 1489 1485 1480 1476 1472 1468 1464 1460 1456 1452 1448 1443 1437 1432 1429 1423 1417 1411 1406 1401 1396 1391 1385
1565 1565 1565 1564 1562 1560 1557 1554 1551 1547 1543 1538 1533 1528 1523 1517 1512 1506 1500 1495 1490 1486 1482 1477 1473 1469 1465 1462 1458 1454 1450 1445 1441 1436 1431 1426 1420 1415 1410 1405 1400 1395 1391
1563 1563 1562 1562 1560 1559 1556 1554 1551 1547 1543 1538 1534 1529 1524 1519 1513 1508 1502 1496 1491 1488 1483 1478 1474 1470 1466 1463 1460 1457 1452 1448 1444 1439 1434 1428 1423 1418 1413 1409 1405 1401 1397
1560 1560 1560 1559 1559 1557 1555 1553 1550 1546 1543 1538 1534 1529 1524 1520 1515 1509 1504 1500 1494 1488 1483 1479 1475 1471 1468 1463 1460 1457 1453 1450 1446 1441 1436 1432 1427 1423 1419 1414 1410 1406 1402